owner,sensor,date,latitude,longitude,vertical_datum,wind_speed,wind_to_direction,wind_speed_of_gust,qcFlag 
WAVCIS,ioos:station:WAVCIS:CSI03:3,2011-05-01T00:00:00Z,29.4412,-92.0613,10.0,7.73,137.0,,'11111222,11111222,99999999' 
WAVCIS,ioos:station:WAVCIS:CSI03:3,2011-05-01T01:00:00Z,29.4412,-92.0613,10.0,10.52,145.0,,'11111222,11111222,99999999' 
WAVCIS,ioos:station:WAVCIS:CSI03:3,2011-05-01T02:00:00Z,29.4412,-92.0613,10.0,10.94,143.0,,'11111222,11111222,99999999' 
WAVCIS,ioos:station:WAVCIS:CSI03:3,2011-05-01T03:00:00Z,29.4412,-92.0613,10.0,9.69,142.0,,'11111222,11111222,99999999' 
WAVCIS,ioos:station:WAVCIS:CSI03:3,2011-05-01T04:00:00Z,29.4412,-92.0613,10.0,8.4,140.0,,'11111222,11111222,99999999' 
WAVCIS,ioos:station:WAVCIS:CSI03:3,2011-05-01T05:00:00Z,29.4412,-92.0613,10.0,7.46,137.0,,'11111222,11111222,99999999' 
WAVCIS,ioos:station:WAVCIS:CSI03:3,2011-05-01T06:00:00Z,29.4412,-92.0613,10.0,8.78,143.0,,'11111222,11111222,99999999' 
WAVCIS,ioos:station:WAVCIS:CSI03:3,2011-05-01T07:00:00Z,29.4412,-92.0613,10.0,8.92,149.0,,'11111222,11111222,99999999' 
WAVCIS,ioos:station:WAVCIS:CSI03:3,2011-05-01T08:00:00Z,29.4412,-92.0613,10.0,9.11,160.0,,'11111222,11111222,99999999' 
WAVCIS,ioos:station:WAVCIS:CSI03:3,2011-05-01T09:00:00Z,29.4412,-92.0613,10.0,10.18,163.0,,'11111222,11111222,99999999' 
WAVCIS,ioos:station:WAVCIS:CSI03:3,2011-05-01T10:00:00Z,29.4412,-92.0613,10.0,7.66,164.0,,'11111222,11111222,99999999' 
WAVCIS,ioos:station:WAVCIS:CSI03:3,2011-05-01T11:00:00Z,29.4412,-92.0613,10.0,9.03,160.0,,'11111222,11111222,99999999' 
WAVCIS,ioos:station:WAVCIS:CSI03:3,2011-05-01T12:00:00Z,29.4412,-92.0613,10.0,9.65,162.0,,'11111222,11111222,99999999' 
WAVCIS,ioos:station:WAVCIS:CSI03:3,2011-05-01T13:00:00Z,29.4412,-92.0613,10.0,9.35,162.0,,'11111222,11111222,99999999' 
WAVCIS,ioos:station:WAVCIS:CSI03:3,2011-05-01T14:00:00Z,29.4412,-92.0613,10.0,9.27,160.0,,'11111222,11111222,99999999' 
WAVCIS,ioos:station:WAVCIS:CSI03:3,2011-05-01T15:00:00Z,29.4412,-92.0613,10.0,8.82,158.0,,'11111222,11111222,99999999' 
WAVCIS,ioos:station:WAVCIS:CSI03:3,2011-05-01T16:00:00Z,29.4412,-92.0613,10.0,8.08,158.0,,'11111222,11111222,99999999' 
WAVCIS,ioos:station:WAVCIS:CSI03:3,2011-05-01T17:00:00Z,29.4412,-92.0613,10.0,8.69,160.0,,'11111222,11111222,99999999' 
WAVCIS,ioos:station:WAVCIS:CSI03:3,2011-05-01T18:00:00Z,29.4412,-92.0613,10.0,8.45,161.0,,'11111222,11111222,99999999' 
WAVCIS,ioos:station:WAVCIS:CSI03:3,2011-05-01T19:00:00Z,29.4412,-92.0613,10.0,9.17,159.0,,'11111222,11111222,99999999' 
WAVCIS,ioos:station:WAVCIS:CSI03:3,2011-05-01T20:00:00Z,29.4412,-92.0613,10.0,8.94,162.0,,'11111222,11111222,99999999' 
WAVCIS,ioos:station:WAVCIS:CSI03:3,2011-05-01T21:00:00Z,29.4412,-92.0613,10.0,8.9,163.0,,'11111222,11111222,99999999' 
WAVCIS,ioos:station:WAVCIS:CSI03:3,2011-05-01T22:00:00Z,29.4412,-92.0613,10.0,8.69,155.0,,'11111222,11111222,99999999' 
WAVCIS,ioos:station:WAVCIS:CSI03:3,2011-05-01T23:00:00Z,29.4412,-92.0613,10.0,8.52,149.0,,'11111222,11111222,99999999' 
WAVCIS,ioos:station:WAVCIS:CSI03:3,2011-05-02T00:00:00Z,29.4412,-92.0613,10.0,8.37,143.0,,'11111222,11111222,99999999' 
WAVCIS,ioos:station:WAVCIS:CSI03:3,2011-05-02T01:00:00Z,29.4412,-92.0613,10.0,8.5,148.0,,'11111222,11111222,99999999' 
WAVCIS,ioos:station:WAVCIS:CSI03:3,2011-05-02T02:00:00Z,29.4412,-92.0613,10.0,9.22,148.0,,'11111222,11111222,99999999' 
WAVCIS,ioos:station:WAVCIS:CSI03:3,2011-05-02T03:00:00Z,29.4412,-92.0613,10.0,9.95,150.0,,'11111222,11111222,99999999' 
WAVCIS,ioos:station:WAVCIS:CSI03:3,2011-05-02T04:00:00Z,29.4412,-92.0613,10.0,9.8,153.0,,'11111222,11111222,99999999' 
WAVCIS,ioos:station:WAVCIS:CSI03:3,2011-05-02T05:00:00Z,29.4412,-92.0613,10.0,10.49,152.0,,'11111222,11111222,99999999' 
WAVCIS,ioos:station:WAVCIS:CSI03:3,2011-05-02T06:00:00Z,29.4412,-92.0613,10.0,10.16,156.0,,'11111222,11111222,99999999' 
WAVCIS,ioos:station:WAVCIS:CSI03:3,2011-05-02T07:00:00Z,29.4412,-92.0613,10.0,10.23,158.0,,'11111222,11111222,99999999' 
WAVCIS,ioos:station:WAVCIS:CSI03:3,2011-05-02T08:00:00Z,29.4412,-92.0613,10.0,9.36,159.0,,'11111222,11111222,99999999' 
WAVCIS,ioos:station:WAVCIS:CSI03:3,2011-05-02T09:00:00Z,29.4412,-92.0613,10.0,9.35,161.0,,'11111222,11111222,99999999' 
WAVCIS,ioos:station:WAVCIS:CSI03:3,2011-05-02T10:00:00Z,29.4412,-92.0613,10.0,8.83,161.0,,'11111222,11111222,99999999' 
WAVCIS,ioos:station:WAVCIS:CSI03:3,2011-05-02T11:00:00Z,29.4412,-92.0613,10.0,8.21,162.0,,'11111222,11111222,99999999' 
WAVCIS,ioos:station:WAVCIS:CSI03:3,2011-05-02T12:00:00Z,29.4412,-92.0613,10.0,7.22,165.0,,'11111222,11111222,99999999' 
WAVCIS,ioos:station:WAVCIS:CSI03:3,2011-05-02T13:00:00Z,29.4412,-92.0613,10.0,8.0,162.0,,'11111222,11111222,99999999' 
WAVCIS,ioos:station:WAVCIS:CSI03:3,2011-05-02T14:00:00Z,29.4412,-92.0613,10.0,6.983,162.0,,'11111222,11111222,99999999' 
WAVCIS,ioos:station:WAVCIS:CSI03:3,2011-05-02T15:00:00Z,29.4412,-92.0613,10.0,6.657,161.0,,'11111222,11111222,99999999' 
WAVCIS,ioos:station:WAVCIS:CSI03:3,2011-05-02T16:00:00Z,29.4412,-92.0613,10.0,7.29,162.0,,'11111222,11111222,99999999' 
WAVCIS,ioos:station:WAVCIS:CSI03:3,2011-05-02T17:00:00Z,29.4412,-92.0613,10.0,6.954,160.0,,'11111222,11111222,99999999' 
WAVCIS,ioos:station:WAVCIS:CSI03:3,2011-05-02T18:00:00Z,29.4412,-92.0613,10.0,6.201,158.0,,'11111222,11111222,99999999' 
WAVCIS,ioos:station:WAVCIS:CSI03:3,2011-05-02T19:00:00Z,29.4412,-92.0613,10.0,6.829,151.0,,'11111222,11111222,99999999' 
WAVCIS,ioos:station:WAVCIS:CSI03:3,2011-05-02T20:00:00Z,29.4412,-92.0613,10.0,6.443,153.0,,'11111222,11111222,99999999' 
WAVCIS,ioos:station:WAVCIS:CSI03:3,2011-05-02T21:00:00Z,29.4412,-92.0613,10.0,6.483,157.0,,'11111222,11111222,99999999' 
WAVCIS,ioos:station:WAVCIS:CSI03:3,2011-05-02T22:00:00Z,29.4412,-92.0613,10.0,6.186,160.0,,'11111222,11111222,99999999' 
WAVCIS,ioos:station:WAVCIS:CSI03:3,2011-05-02T23:00:00Z,29.4412,-92.0613,10.0,6.87,154.0,,'11111222,11111222,99999999' 
WAVCIS,ioos:station:WAVCIS:CSI03:3,2011-05-03T00:00:00Z,29.4412,-92.0613,10.0,7.32,155.0,,'11111222,11111222,99999999' 
WAVCIS,ioos:station:WAVCIS:CSI03:3,2011-05-03T01:00:00Z,29.4412,-92.0613,10.0,6.513,153.0,,'11111222,11111222,99999999' 
WAVCIS,ioos:station:WAVCIS:CSI03:3,2011-05-03T02:00:00Z,29.4412,-92.0613,10.0,7.76,159.0,,'11111222,11111222,99999999' 
WAVCIS,ioos:station:WAVCIS:CSI03:3,2011-05-03T03:00:00Z,29.4412,-92.0613,10.0,7.82,163.0,,'11111222,11111222,99999999' 
WAVCIS,ioos:station:WAVCIS:CSI03:3,2011-05-03T04:00:00Z,29.4412,-92.0613,10.0,8.82,161.0,,'11111222,11111222,99999999' 
WAVCIS,ioos:station:WAVCIS:CSI03:3,2011-05-03T05:00:00Z,29.4412,-92.0613,10.0,9.39,166.0,,'11111222,11111222,99999999' 
WAVCIS,ioos:station:WAVCIS:CSI03:3,2011-05-03T06:00:00Z,29.4412,-92.0613,10.0,5.556,177.0,,'11111222,11111222,99999999' 
WAVCIS,ioos:station:WAVCIS:CSI03:3,2011-05-03T07:00:00Z,29.4412,-92.0613,10.0,2.753,207.0,,'11111222,11111222,99999999' 
WAVCIS,ioos:station:WAVCIS:CSI03:3,2011-05-03T08:00:00Z,29.4412,-92.0613,10.0,2.153,243.0,,'11111222,11111222,99999999' 
WAVCIS,ioos:station:WAVCIS:CSI03:3,2011-05-03T09:00:00Z,29.4412,-92.0613,10.0,10.15,352.0,,'11111222,11111222,99999999' 
WAVCIS,ioos:station:WAVCIS:CSI03:3,2011-05-03T10:00:00Z,29.4412,-92.0613,10.0,8.6,2.0,,'11111222,11111222,99999999' 
WAVCIS,ioos:station:WAVCIS:CSI03:3,2011-05-03T11:00:00Z,29.4412,-92.0613,10.0,9.01,6.0,,'11111222,11111222,99999999' 
WAVCIS,ioos:station:WAVCIS:CSI03:3,2011-05-03T12:00:00Z,29.4412,-92.0613,10.0,9.66,7.0,,'11111222,11111222,99999999' 
WAVCIS,ioos:station:WAVCIS:CSI03:3,2011-05-03T13:00:00Z,29.4412,-92.0613,10.0,10.61,9.0,,'11111222,11111222,99999999' 
WAVCIS,ioos:station:WAVCIS:CSI03:3,2011-05-03T14:00:00Z,29.4412,-92.0613,10.0,9.18,18.0,,'11111222,11111222,99999999' 
WAVCIS,ioos:station:WAVCIS:CSI03:3,2011-05-03T15:00:00Z,29.4412,-92.0613,10.0,9.98,16.0,,'11111222,11111222,99999999' 
WAVCIS,ioos:station:WAVCIS:CSI03:3,2011-05-03T16:00:00Z,29.4412,-92.0613,10.0,10.19,14.0,,'11111222,11111222,99999999' 
WAVCIS,ioos:station:WAVCIS:CSI03:3,2011-05-03T17:00:00Z,29.4412,-92.0613,10.0,10.1,7.0,,'11111222,11111222,99999999' 
WAVCIS,ioos:station:WAVCIS:CSI03:3,2011-05-03T18:00:00Z,29.4412,-92.0613,10.0,10.58,14.0,,'11111222,11111222,99999999' 
WAVCIS,ioos:station:WAVCIS:CSI03:3,2011-05-03T19:00:00Z,29.4412,-92.0613,10.0,10.15,16.0,,'11111222,11111222,99999999' 
WAVCIS,ioos:station:WAVCIS:CSI03:3,2011-05-03T20:00:00Z,29.4412,-92.0613,10.0,10.12,10.0,,'11111222,11111222,99999999' 
WAVCIS,ioos:station:WAVCIS:CSI03:3,2011-05-03T21:00:00Z,29.4412,-92.0613,10.0,8.43,19.0,,'11111222,11111222,99999999' 
WAVCIS,ioos:station:WAVCIS:CSI03:3,2011-05-03T22:00:00Z,29.4412,-92.0613,10.0,9.34,23.0,,'11111222,11111222,99999999' 
WAVCIS,ioos:station:WAVCIS:CSI03:3,2011-05-03T23:00:00Z,29.4412,-92.0613,10.0,8.35,26.0,,'11111222,11111222,99999999' 
WAVCIS,ioos:station:WAVCIS:CSI03:3,2011-05-04T00:00:00Z,29.4412,-92.0613,10.0,7.36,33.0,,'11111222,11111222,99999999' 
WAVCIS,ioos:station:WAVCIS:CSI03:3,2011-05-04T01:00:00Z,29.4412,-92.0613,10.0,7.74,48.0,,'11111222,11111222,99999999' 
WAVCIS,ioos:station:WAVCIS:CSI03:3,2011-05-04T02:00:00Z,29.4412,-92.0613,10.0,7.85,53.0,,'11111222,11111222,99999999' 
WAVCIS,ioos:station:WAVCIS:CSI03:3,2011-05-04T03:00:00Z,29.4412,-92.0613,10.0,7.99,53.0,,'11111222,11111222,99999999' 
WAVCIS,ioos:station:WAVCIS:CSI03:3,2011-05-04T04:00:00Z,29.4412,-92.0613,10.0,6.919,52.0,,'11111222,11111222,99999999' 
WAVCIS,ioos:station:WAVCIS:CSI03:3,2011-05-04T05:00:00Z,29.4412,-92.0613,10.0,7.84,53.0,,'11111222,11111222,99999999' 
WAVCIS,ioos:station:WAVCIS:CSI03:3,2011-05-04T06:00:00Z,29.4412,-92.0613,10.0,6.604,50.0,,'11111222,11111222,99999999' 
WAVCIS,ioos:station:WAVCIS:CSI03:3,2011-05-04T07:00:00Z,29.4412,-92.0613,10.0,9.14,55.0,,'11111222,11111222,99999999' 
WAVCIS,ioos:station:WAVCIS:CSI03:3,2011-05-04T08:00:00Z,29.4412,-92.0613,10.0,9.58,57.0,,'11111222,11111222,99999999' 
WAVCIS,ioos:station:WAVCIS:CSI03:3,2011-05-04T09:00:00Z,29.4412,-92.0613,10.0,9.89,58.0,,'11111222,11111222,99999999' 
WAVCIS,ioos:station:WAVCIS:CSI03:3,2011-05-04T10:00:00Z,29.4412,-92.0613,10.0,9.39,58.0,,'11111222,11111222,99999999' 
WAVCIS,ioos:station:WAVCIS:CSI03:3,2011-05-04T11:00:00Z,29.4412,-92.0613,10.0,9.43,57.0,,'11111222,11111222,99999999' 
WAVCIS,ioos:station:WAVCIS:CSI03:3,2011-05-04T12:00:00Z,29.4412,-92.0613,10.0,9.57,58.0,,'11111222,11111222,99999999' 
WAVCIS,ioos:station:WAVCIS:CSI03:3,2011-05-04T13:00:00Z,29.4412,-92.0613,10.0,9.05,59.0,,'11111222,11111222,99999999' 
WAVCIS,ioos:station:WAVCIS:CSI03:3,2011-05-04T14:00:00Z,29.4412,-92.0613,10.0,9.46,61.0,,'11111222,11111222,99999999' 
WAVCIS,ioos:station:WAVCIS:CSI03:3,2011-05-04T15:00:00Z,29.4412,-92.0613,10.0,9.48,67.0,,'11111222,11111222,99999999' 
WAVCIS,ioos:station:WAVCIS:CSI03:3,2011-05-04T16:00:00Z,29.4412,-92.0613,10.0,9.73,65.0,,'11111222,11111222,99999999' 
WAVCIS,ioos:station:WAVCIS:CSI03:3,2011-05-04T17:00:00Z,29.4412,-92.0613,10.0,9.67,69.0,,'11111222,11111222,99999999' 
WAVCIS,ioos:station:WAVCIS:CSI03:3,2011-05-04T18:00:00Z,29.4412,-92.0613,10.0,8.69,64.0,,'11111222,11111222,99999999' 
WAVCIS,ioos:station:WAVCIS:CSI03:3,2011-05-04T19:00:00Z,29.4412,-92.0613,10.0,6.641,61.0,,'11111222,11111222,99999999' 
WAVCIS,ioos:station:WAVCIS:CSI03:3,2011-05-04T20:00:00Z,29.4412,-92.0613,10.0,5.886,64.0,,'11111222,11111222,99999999' 
WAVCIS,ioos:station:WAVCIS:CSI03:3,2011-05-04T21:00:00Z,29.4412,-92.0613,10.0,5.284,73.0,,'11111222,11111222,99999999' 
WAVCIS,ioos:station:WAVCIS:CSI03:3,2011-05-04T22:00:00Z,29.4412,-92.0613,10.0,4.615,81.0,,'11111222,11111222,99999999' 
WAVCIS,ioos:station:WAVCIS:CSI03:3,2011-05-04T23:00:00Z,29.4412,-92.0613,10.0,4.946,81.0,,'11111222,11111222,99999999' 
WAVCIS,ioos:station:WAVCIS:CSI03:3,2011-05-05T00:00:00Z,29.4412,-92.0613,10.0,4.275,56.0,,'11111222,11111222,99999999' 
WAVCIS,ioos:station:WAVCIS:CSI03:3,2011-05-05T01:00:00Z,29.4412,-92.0613,10.0,3.519,56.0,,'11111222,11111222,99999999' 
WAVCIS,ioos:station:WAVCIS:CSI03:3,2011-05-05T02:00:00Z,29.4412,-92.0613,10.0,2.951,53.0,,'11111222,11111222,99999999' 
WAVCIS,ioos:station:WAVCIS:CSI03:3,2011-05-05T03:00:00Z,29.4412,-92.0613,10.0,2.913,54.0,,'11111222,11111222,99999999' 
WAVCIS,ioos:station:WAVCIS:CSI03:3,2011-05-05T04:00:00Z,29.4412,-92.0613,10.0,3.012,105.0,,'11111222,11111222,99999999' 
WAVCIS,ioos:station:WAVCIS:CSI03:3,2011-05-05T05:00:00Z,29.4412,-92.0613,10.0,2.317,135.0,,'11111222,11111222,99999999' 
WAVCIS,ioos:station:WAVCIS:CSI03:3,2011-05-05T06:00:00Z,29.4412,-92.0613,10.0,2.33,74.0,,'11111222,11111222,99999999' 
WAVCIS,ioos:station:WAVCIS:CSI03:3,2011-05-05T07:00:00Z,29.4412,-92.0613,10.0,1.883,58.0,,'11111222,11111222,99999999' 
WAVCIS,ioos:station:WAVCIS:CSI03:3,2011-05-05T08:00:00Z,29.4412,-92.0613,10.0,3.129,55.0,,'11111222,11111222,99999999' 
WAVCIS,ioos:station:WAVCIS:CSI03:3,2011-05-05T09:00:00Z,29.4412,-92.0613,10.0,4.527,63.0,,'11111222,11111222,99999999' 
WAVCIS,ioos:station:WAVCIS:CSI03:3,2011-05-05T10:00:00Z,29.4412,-92.0613,10.0,5.615,79.0,,'11111222,11111222,99999999' 
WAVCIS,ioos:station:WAVCIS:CSI03:3,2011-05-05T11:00:00Z,29.4412,-92.0613,10.0,6.754,84.0,,'11111222,11111222,99999999' 
WAVCIS,ioos:station:WAVCIS:CSI03:3,2011-05-05T12:00:00Z,29.4412,-92.0613,10.0,6.632,84.0,,'11111222,11111222,99999999' 
WAVCIS,ioos:station:WAVCIS:CSI03:3,2011-05-05T13:00:00Z,29.4412,-92.0613,10.0,7.87,86.0,,'11111222,11111222,99999999' 
WAVCIS,ioos:station:WAVCIS:CSI03:3,2011-05-05T14:00:00Z,29.4412,-92.0613,10.0,8.81,91.0,,'11111222,11111222,99999999' 
WAVCIS,ioos:station:WAVCIS:CSI03:3,2011-05-05T15:00:00Z,29.4412,-92.0613,10.0,9.31,92.0,,'11111222,11111222,99999999' 
WAVCIS,ioos:station:WAVCIS:CSI03:3,2011-05-05T16:00:00Z,29.4412,-92.0613,10.0,8.5,100.0,,'11111222,11111222,99999999' 
WAVCIS,ioos:station:WAVCIS:CSI03:3,2011-05-05T17:00:00Z,29.4412,-92.0613,10.0,6.951,99.0,,'11111222,11111222,99999999' 
WAVCIS,ioos:station:WAVCIS:CSI03:3,2011-05-05T18:00:00Z,29.4412,-92.0613,10.0,5.77,96.0,,'11111222,11111222,99999999' 
WAVCIS,ioos:station:WAVCIS:CSI03:3,2011-05-05T19:00:00Z,29.4412,-92.0613,10.0,4.812,111.0,,'11111222,11111222,99999999' 
WAVCIS,ioos:station:WAVCIS:CSI03:3,2011-05-05T20:00:00Z,29.4412,-92.0613,10.0,4.311,122.0,,'11111222,11111222,99999999' 
WAVCIS,ioos:station:WAVCIS:CSI03:3,2011-05-05T21:00:00Z,29.4412,-92.0613,10.0,2.57,151.0,,'11111222,11111222,99999999' 
WAVCIS,ioos:station:WAVCIS:CSI03:3,2011-05-05T22:00:00Z,29.4412,-92.0613,10.0,1.911,175.0,,'11111222,11111222,99999999' 
WAVCIS,ioos:station:WAVCIS:CSI03:3,2011-05-05T23:00:00Z,29.4412,-92.0613,10.0,1.876,177.0,,'11111222,11111222,99999999' 
WAVCIS,ioos:station:WAVCIS:CSI03:3,2011-05-06T00:00:00Z,29.4412,-92.0613,10.0,0.944,174.0,,'11111222,11111222,99999999' 
WAVCIS,ioos:station:WAVCIS:CSI03:3,2011-05-06T01:00:00Z,29.4412,-92.0613,10.0,1.792,174.0,,'11111222,11111222,99999999' 
WAVCIS,ioos:station:WAVCIS:CSI03:3,2011-05-06T02:00:00Z,29.4412,-92.0613,10.0,2.039,177.0,,'11111222,11111222,99999999' 
WAVCIS,ioos:station:WAVCIS:CSI03:3,2011-05-06T03:00:00Z,29.4412,-92.0613,10.0,1.652,179.0,,'11111222,11111222,99999999' 
WAVCIS,ioos:station:WAVCIS:CSI03:3,2011-05-06T04:00:00Z,29.4412,-92.0613,10.0,0.452,193.0,,'11111222,11111222,99999999' 
WAVCIS,ioos:station:WAVCIS:CSI03:3,2011-05-06T05:00:00Z,29.4412,-92.0613,10.0,1.661,266.0,,'11111222,11111222,99999999' 
WAVCIS,ioos:station:WAVCIS:CSI03:3,2011-05-06T06:00:00Z,29.4412,-92.0613,10.0,1.976,270.0,,'11111222,11111222,99999999' 
WAVCIS,ioos:station:WAVCIS:CSI03:3,2011-05-06T07:00:00Z,29.4412,-92.0613,10.0,0.406,272.0,,'11111222,11111222,99999999' 
WAVCIS,ioos:station:WAVCIS:CSI03:3,2011-05-06T08:00:00Z,29.4412,-92.0613,10.0,0.275,193.0,,'11111222,11111222,99999999' 
WAVCIS,ioos:station:WAVCIS:CSI03:3,2011-05-06T09:00:00Z,29.4412,-92.0613,10.0,1.399,96.0,,'11111222,11111222,99999999' 
WAVCIS,ioos:station:WAVCIS:CSI03:3,2011-05-06T10:00:00Z,29.4412,-92.0613,10.0,1.408,56.0,,'11111222,11111222,99999999' 
WAVCIS,ioos:station:WAVCIS:CSI03:3,2011-05-06T11:00:00Z,29.4412,-92.0613,10.0,1.375,21.0,,'11111222,11111222,99999999' 
WAVCIS,ioos:station:WAVCIS:CSI03:3,2011-05-06T12:00:00Z,29.4412,-92.0613,10.0,1.36,45.0,,'11111222,11111222,99999999' 
WAVCIS,ioos:station:WAVCIS:CSI03:3,2011-05-06T13:00:00Z,29.4412,-92.0613,10.0,1.207,23.0,,'11111222,11111222,99999999' 
WAVCIS,ioos:station:WAVCIS:CSI03:3,2011-05-06T14:00:00Z,29.4412,-92.0613,10.0,2.055,52.0,,'11111222,11111222,99999999' 
WAVCIS,ioos:station:WAVCIS:CSI03:3,2011-05-06T15:00:00Z,29.4412,-92.0613,10.0,1.417,45.0,,'11111222,11111222,99999999' 
WAVCIS,ioos:station:WAVCIS:CSI03:3,2011-05-06T16:00:00Z,29.4412,-92.0613,10.0,1.471,27.0,,'11111222,11111222,99999999' 
WAVCIS,ioos:station:WAVCIS:CSI03:3,2011-05-06T17:00:00Z,29.4412,-92.0613,10.0,2.175,331.0,,'11111222,11111222,99999999' 
WAVCIS,ioos:station:WAVCIS:CSI03:3,2011-05-06T18:00:00Z,29.4412,-92.0613,10.0,0.955,346.0,,'11111222,11111222,99999999' 
WAVCIS,ioos:station:WAVCIS:CSI03:3,2011-05-06T19:00:00Z,29.4412,-92.0613,10.0,0.709,174.0,,'11111222,11111222,99999999' 
WAVCIS,ioos:station:WAVCIS:CSI03:3,2011-05-06T20:00:00Z,29.4412,-92.0613,10.0,1.416,180.0,,'11111222,11111222,99999999' 
WAVCIS,ioos:station:WAVCIS:CSI03:3,2011-05-06T21:00:00Z,29.4412,-92.0613,10.0,2.301,186.0,,'11111222,11111222,99999999' 
WAVCIS,ioos:station:WAVCIS:CSI03:3,2011-05-06T22:00:00Z,29.4412,-92.0613,10.0,2.091,192.0,,'11111222,11111222,99999999' 
WAVCIS,ioos:station:WAVCIS:CSI03:3,2011-05-06T23:00:00Z,29.4412,-92.0613,10.0,2.879,191.0,,'11111222,11111222,99999999' 
WAVCIS,ioos:station:WAVCIS:CSI03:3,2011-05-07T00:00:00Z,29.4412,-92.0613,10.0,2.967,195.0,,'11111222,11111222,99999999' 
WAVCIS,ioos:station:WAVCIS:CSI03:3,2011-05-07T01:00:00Z,29.4412,-92.0613,10.0,2.587,196.0,,'11111222,11111222,99999999' 
WAVCIS,ioos:station:WAVCIS:CSI03:3,2011-05-07T02:00:00Z,29.4412,-92.0613,10.0,2.526,190.0,,'11111222,11111222,99999999' 
WAVCIS,ioos:station:WAVCIS:CSI03:3,2011-05-07T03:00:00Z,29.4412,-92.0613,10.0,3.406,185.0,,'11111222,11111222,99999999' 
WAVCIS,ioos:station:WAVCIS:CSI03:3,2011-05-07T04:00:00Z,29.4412,-92.0613,10.0,3.839,184.0,,'11111222,11111222,99999999' 
WAVCIS,ioos:station:WAVCIS:CSI03:3,2011-05-07T05:00:00Z,29.4412,-92.0613,10.0,5.099,179.0,,'11111222,11111222,99999999' 
WAVCIS,ioos:station:WAVCIS:CSI03:3,2011-05-07T06:00:00Z,29.4412,-92.0613,10.0,5.42,175.0,,'11111222,11111222,99999999' 
WAVCIS,ioos:station:WAVCIS:CSI03:3,2011-05-07T07:00:00Z,29.4412,-92.0613,10.0,5.433,176.0,,'11111222,11111222,99999999' 
WAVCIS,ioos:station:WAVCIS:CSI03:3,2011-05-07T08:00:00Z,29.4412,-92.0613,10.0,5.616,178.0,,'11111222,11111222,99999999' 
WAVCIS,ioos:station:WAVCIS:CSI03:3,2011-05-07T09:00:00Z,29.4412,-92.0613,10.0,5.257,181.0,,'11111222,11111222,99999999' 
WAVCIS,ioos:station:WAVCIS:CSI03:3,2011-05-07T10:00:00Z,29.4412,-92.0613,10.0,3.512,190.0,,'11111222,11111222,99999999' 
WAVCIS,ioos:station:WAVCIS:CSI03:3,2011-05-07T11:00:00Z,29.4412,-92.0613,10.0,3.921,199.0,,'11111222,11111222,99999999' 
WAVCIS,ioos:station:WAVCIS:CSI03:3,2011-05-07T12:00:00Z,29.4412,-92.0613,10.0,1.907,208.0,,'11111222,11111222,99999999' 
WAVCIS,ioos:station:WAVCIS:CSI03:3,2011-05-07T13:00:00Z,29.4412,-92.0613,10.0,1.42,199.0,,'11111222,11111222,99999999' 
WAVCIS,ioos:station:WAVCIS:CSI03:3,2011-05-07T14:00:00Z,29.4412,-92.0613,10.0,0.802,195.0,,'11111222,11111222,99999999' 
WAVCIS,ioos:station:WAVCIS:CSI03:3,2011-05-07T15:00:00Z,29.4412,-92.0613,10.0,2.127,189.0,,'11111222,11111222,99999999' 
WAVCIS,ioos:station:WAVCIS:CSI03:3,2011-05-07T16:00:00Z,29.4412,-92.0613,10.0,0.621,192.0,,'11111222,11111222,99999999' 
WAVCIS,ioos:station:WAVCIS:CSI03:3,2011-05-07T17:00:00Z,29.4412,-92.0613,10.0,2.992,182.0,,'11111222,11111222,99999999' 
WAVCIS,ioos:station:WAVCIS:CSI03:3,2011-05-07T18:00:00Z,29.4412,-92.0613,10.0,3.715,165.0,,'11111222,11111222,99999999' 
WAVCIS,ioos:station:WAVCIS:CSI03:3,2011-05-07T19:00:00Z,29.4412,-92.0613,10.0,4.145,166.0,,'11111222,11111222,99999999' 
WAVCIS,ioos:station:WAVCIS:CSI03:3,2011-05-07T20:00:00Z,29.4412,-92.0613,10.0,4.104,168.0,,'11111222,11111222,99999999' 
WAVCIS,ioos:station:WAVCIS:CSI03:3,2011-05-07T21:00:00Z,29.4412,-92.0613,10.0,4.606,174.0,,'11111222,11111222,99999999' 
WAVCIS,ioos:station:WAVCIS:CSI03:3,2011-05-07T22:00:00Z,29.4412,-92.0613,10.0,4.7,164.0,,'11111222,11111222,99999999' 
WAVCIS,ioos:station:WAVCIS:CSI03:3,2011-05-07T23:00:00Z,29.4412,-92.0613,10.0,4.831,166.0,,'11111222,11111222,99999999' 
WAVCIS,ioos:station:WAVCIS:CSI03:3,2011-05-08T00:00:00Z,29.4412,-92.0613,10.0,4.791,168.0,,'11111222,11111222,99999999' 
WAVCIS,ioos:station:WAVCIS:CSI03:3,2011-05-08T01:00:00Z,29.4412,-92.0613,10.0,5.244,168.0,,'11111222,11111222,99999999' 
WAVCIS,ioos:station:WAVCIS:CSI03:3,2011-05-08T02:00:00Z,29.4412,-92.0613,10.0,5.798,161.0,,'11111222,11111222,99999999' 
WAVCIS,ioos:station:WAVCIS:CSI03:3,2011-05-08T03:00:00Z,29.4412,-92.0613,10.0,5.599,166.0,,'11111222,11111222,99999999' 
WAVCIS,ioos:station:WAVCIS:CSI03:3,2011-05-08T04:00:00Z,29.4412,-92.0613,10.0,5.467,168.0,,'11111222,11111222,99999999' 
WAVCIS,ioos:station:WAVCIS:CSI03:3,2011-05-08T05:00:00Z,29.4412,-92.0613,10.0,5.861,173.0,,'11111222,11111222,99999999' 
WAVCIS,ioos:station:WAVCIS:CSI03:3,2011-05-08T06:00:00Z,29.4412,-92.0613,10.0,3.245,183.0,,'11111222,11111222,99999999' 
WAVCIS,ioos:station:WAVCIS:CSI03:3,2011-05-08T07:00:00Z,29.4412,-92.0613,10.0,2.599,191.0,,'11111222,11111222,99999999' 
WAVCIS,ioos:station:WAVCIS:CSI03:3,2011-05-08T08:00:00Z,29.4412,-92.0613,10.0,3.463,194.0,,'11111222,11111222,99999999' 
WAVCIS,ioos:station:WAVCIS:CSI03:3,2011-05-08T09:00:00Z,29.4412,-92.0613,10.0,4.563,196.0,,'11111222,11111222,99999999' 
WAVCIS,ioos:station:WAVCIS:CSI03:3,2011-05-08T10:00:00Z,29.4412,-92.0613,10.0,1.978,206.0,,'11111222,11111222,99999999' 
WAVCIS,ioos:station:WAVCIS:CSI03:3,2011-05-08T11:00:00Z,29.4412,-92.0613,10.0,2.588,199.0,,'11111222,11111222,99999999' 
WAVCIS,ioos:station:WAVCIS:CSI03:3,2011-05-08T12:00:00Z,29.4412,-92.0613,10.0,2.856,198.0,,'11111222,11111222,99999999' 
WAVCIS,ioos:station:WAVCIS:CSI03:3,2011-05-08T13:00:00Z,29.4412,-92.0613,10.0,2.838,197.0,,'11111222,11111222,99999999' 
WAVCIS,ioos:station:WAVCIS:CSI03:3,2011-05-08T14:00:00Z,29.4412,-92.0613,10.0,1.535,202.0,,'11111222,11111222,99999999' 
WAVCIS,ioos:station:WAVCIS:CSI03:3,2011-05-08T15:00:00Z,29.4412,-92.0613,10.0,2.795,190.0,,'11111222,11111222,99999999' 
WAVCIS,ioos:station:WAVCIS:CSI03:3,2011-05-08T16:00:00Z,29.4412,-92.0613,10.0,3.02,192.0,,'11111222,11111222,99999999' 
WAVCIS,ioos:station:WAVCIS:CSI03:3,2011-05-08T17:00:00Z,29.4412,-92.0613,10.0,3.871,178.0,,'11111222,11111222,99999999' 
WAVCIS,ioos:station:WAVCIS:CSI03:3,2011-05-08T18:00:00Z,29.4412,-92.0613,10.0,4.289,177.0,,'11111222,11111222,99999999' 
WAVCIS,ioos:station:WAVCIS:CSI03:3,2011-05-08T19:00:00Z,29.4412,-92.0613,10.0,3.283,182.0,,'11111222,11111222,99999999' 
WAVCIS,ioos:station:WAVCIS:CSI03:3,2011-05-08T20:00:00Z,29.4412,-92.0613,10.0,3.524,180.0,,'11111222,11111222,99999999' 
WAVCIS,ioos:station:WAVCIS:CSI03:3,2011-05-08T21:00:00Z,29.4412,-92.0613,10.0,3.628,180.0,,'11111222,11111222,99999999' 
WAVCIS,ioos:station:WAVCIS:CSI03:3,2011-05-08T22:00:00Z,29.4412,-92.0613,10.0,3.962,180.0,,'11111222,11111222,99999999' 
WAVCIS,ioos:station:WAVCIS:CSI03:3,2011-05-08T23:00:00Z,29.4412,-92.0613,10.0,4.005,178.0,,'11111222,11111222,99999999' 
WAVCIS,ioos:station:WAVCIS:CSI03:3,2011-05-09T00:00:00Z,29.4412,-92.0613,10.0,3.328,183.0,,'11111222,11111222,99999999' 
WAVCIS,ioos:station:WAVCIS:CSI03:3,2011-05-09T01:00:00Z,29.4412,-92.0613,10.0,3.727,176.0,,'11111222,11111222,99999999' 
WAVCIS,ioos:station:WAVCIS:CSI03:3,2011-05-09T02:00:00Z,29.4412,-92.0613,10.0,4.175,167.0,,'11111222,11111222,99999999' 
WAVCIS,ioos:station:WAVCIS:CSI03:3,2011-05-09T03:00:00Z,29.4412,-92.0613,10.0,4.535,173.0,,'11111222,11111222,99999999' 
WAVCIS,ioos:station:WAVCIS:CSI03:3,2011-05-09T04:00:00Z,29.4412,-92.0613,10.0,5.12,174.0,,'11111222,11111222,99999999' 
WAVCIS,ioos:station:WAVCIS:CSI03:3,2011-05-09T05:00:00Z,29.4412,-92.0613,10.0,5.168,174.0,,'11111222,11111222,99999999' 